PEGASUS DEB

Satellite information

Favourite Embed

Satellite Type and Status

DEBRISIN ORBIT

Key statistics

Satellite PEGASUS DEB at a glance.

Uptime

11479

Days in orbit

Revolutions

≈ 14.6

Per day

Orbit

LEO

Low Earth Orbit

Inclination

82.0

Latest

Satellite identification and parameters

Extended collection of information and parameters for PEGASUS DEB.

Object identification

Identified? True

Debris? True

Object name: PEGASUS DEB

International designator: 1994-029QF

Object number (NORAD): 24378

Object ID (CCSDS): 24378

Country: UNITED STATES OF AMERICA (US)

Current information (Y/N): Y

RCS size: SMALL

Orbital parameters

Period: 98.734 minutes

Inclination: 82.0246 deg

SMA: 7076.284 km

Apoapsis: 811.793 km

Periapsis: 584.505 km

RAAN: 118.663 deg

Eccentricy: 0.0160598

Argument of periapsis: 228.3665 deg

Mean anomaly: 130.369 deg

Mean motion: 14.58461246 rev/day

Mean motion (dot): 0.00002465 rev/day2

B* drag term: 0.00044077 1/REarth

Two-line elements (TLE)

Creation date: Oct. 22, 2025, 12:06 a.m.

Reference frame: TEME

Reference center: EARTH

Epoch: Oct. 21, 2025, 5:24 p.m. UTC

TLE line 0: 0 PEGASUS DEB

TLE line 1: 1 24378U 94029QF 25294.72558073 .00002465 00000-0 44077-3 0 9999

TLE line 2: 2 24378 82.0246 118.6630 0160598 228.3665 130.3690 14.58461246663899

Live tracking on map

Real-time ground track for satellite PEGASUS DEB.

In-orbit conjunctions

A list of the most updated potential collisions computed for object PEGASUS DEB.

Target Orbit TCA Probability of collision Miss distance Type
IRIDIUM 33 DEB LEO 2025-06-28 07:55:10 0.0001127152 656.0 (m) DEBRIS
SAUDISAT 1B LEO 2025-02-21 13:01:56 0.0006009976 964.0 (m) PAYLOAD

Associated space launch

PEGASUS DEB was lifted into orbit during the mission ‘Pegasus HAPS | Space Test Experiments Platform 2 (STEP-2)’, on board a Pegasus HAPS space rocket.

The launch took place on May 19, 1994, 5:03 p.m. from Edwards Air Force Base.

For more information about the launch, click the button.

Launch to space Pegasus HAPS | Space Test Experiments Platform 2 (STEP-2)
Pegasus HAPS | Space Test Experiments Platform 2 (STEP-2)

Agency: N/A

Status: Launch Successful

Launch date: May 19, 1994, 5:03 p.m. UTC

Rocket: Pegasus HAPS

Launch pad: Edwards Air Force Base

Location: Air launch to orbit

...

Latest news about this satellite

There are no fresh news available about this satellite. Check back as we update our databases every day.


Newsletter sign-up

Weekly statistics, charts and insights to help you stay on top of the space industry.